Weather History for Rexburg, ID

Change the Weather History Date:

Sunday, October 6, 2013

  Actual Average Record
Temperature  
Mean Temperature 44 °F 48 °F  
Max Temperature 61 °F 63 °F 126 °F (2007)
Min Temperature 27 °F 34 °F 21 °F (2000)
Degree Days  
Heating Degree Days 21 17  
Month to date heating degree days 134 95  
Since 1 July heating degree days 281 453  
Cooling Degree Days 0 0  
Month to date cooling degree days 0 0  
Year to date cooling degree days 452 208  
Moisture  
Dew Point 27 °F    
Average Humidity 57    
Maximum Humidity 92    
Minimum Humidity 22    
Precipitation  
Precipitation 0.00 in 0.04 in 1.05 in (2007)
Month to date precipitation 0.23 0.21  
Year to date precipitation 6.67 10.09  
Sea Level Pressure  
Sea Level Pressure 30.39 in    
Wind  
Wind Speed 2 mph (NNE)    
Max Wind Speed 10 mph    
Max Gust Speed 13 mph    
Visibility 10 miles    
Events      
T = Trace of Precipitation, MM = Missing Value Source: NWS Daily Summary

Daily Weather History Graph

Daily Weather History Graph

Search for Another Location

Airport:

Trip Planner

Search our weather history database for the weather conditions in past years. The results will help you decide how hot, cold, wet, or windy it might be!

Date:

Astronomy

Oct. 06, 2013 Rise Set
Actual Time 7:31 AM MDT 6:58 PM MDT
Civil Twilight 7:02 AM MDT 7:27 PM MDT
Nautical Twilight 6:29 AM MDT 8:00 PM MDT
Astronomical Twilight 5:55 AM MDT 8:34 PM MDT
Moon 9:24 AM MDT (10/6) 7:55 PM MDT (10/6)
Length of Visible Light 12h 24m
Length of Day
11h 27m
Waxing Crescent, 4% of the Moon is Illuminated
Oct 6
Waxing Crescent
Oct 11
First Quarter
Oct 18
Full
Oct 26
Last Quarter
Nov 3
New

Hourly Weather History & Observations

Time (MDT) Temp. Windchill Dew Point Humidity Pressure Visibility Wind Dir Wind Speed Gust Speed Precip Events Conditions
12:53 AM 32.0 °F - 27.0 °F 82% 30.49 in 10.0 mi Calm Calm - N/A   Clear
1:53 AM 30.9 °F - 27.0 °F 85% 30.49 in 10.0 mi Calm Calm - N/A   Clear
2:53 AM 30.0 °F - 27.0 °F 88% 30.48 in 10.0 mi Calm Calm - N/A   Clear
3:53 AM 30.0 °F - 27.0 °F 88% 30.47 in 10.0 mi Calm Calm - N/A   Clear
4:53 AM 28.9 °F - 26.1 °F 89% 30.47 in 10.0 mi Calm Calm - N/A   Clear
5:53 AM 28.9 °F 25.2 °F 26.1 °F 89% 30.46 in 10.0 mi NE 3.5 mph - N/A   Clear
6:53 AM 28.0 °F - 25.0 °F 88% 30.47 in 10.0 mi Calm Calm - N/A   Clear
7:53 AM 28.0 °F - 24.1 °F 85% 30.48 in 10.0 mi Calm Calm - N/A   Clear
8:53 AM 30.9 °F 27.5 °F 26.1 °F 82% 30.49 in 10.0 mi NNE 3.5 mph - N/A   Clear
9:53 AM 37.0 °F 34.5 °F 30.0 °F 76% 30.48 in 10.0 mi NNE 3.5 mph - N/A   Clear
10:53 AM 44.1 °F - 30.0 °F 58% 30.46 in 10.0 mi Calm Calm - N/A   Clear
11:53 AM 50.0 °F - 28.0 °F 43% 30.44 in 10.0 mi Calm Calm - N/A   Clear
12:53 PM 53.1 °F - 26.1 °F 35% 30.41 in 10.0 mi Calm Calm - N/A   Clear
1:53 PM 55.9 °F - 26.1 °F 32% 30.37 in 10.0 mi Calm Calm - N/A   Clear
2:53 PM 57.9 °F - 27.0 °F 31% 30.34 in 10.0 mi West 4.6 mph - N/A   Clear
3:53 PM 59.0 °F - 21.9 °F 24% 30.32 in 10.0 mi WSW 5.8 mph - N/A   Clear
4:53 PM 60.1 °F - 21.9 °F 23% 30.30 in 10.0 mi SW 3.5 mph - N/A   Clear
5:53 PM 60.1 °F - 21.9 °F 23% 30.29 in 10.0 mi West 4.6 mph - N/A   Clear
6:53 PM 57.0 °F - 24.1 °F 28% 30.29 in 10.0 mi Calm Calm - N/A   Clear
7:53 PM 48.0 °F - 32.0 °F 54% 30.31 in 10.0 mi Calm Calm - N/A   Clear
8:53 PM 45.0 °F 42.6 °F 30.0 °F 56% 30.31 in 10.0 mi ENE 4.6 mph - N/A   Clear
9:53 PM 43.0 °F 39.5 °F 30.0 °F 60% 30.28 in 10.0 mi ENE 5.8 mph - N/A   Clear
10:53 PM 39.0 °F 35.7 °F 30.9 °F 73% 30.26 in 10.0 mi NE 4.6 mph - N/A   Clear
11:53 PM 35.1 °F 32.2 °F 28.9 °F 78% 30.24 in 10.0 mi NE 3.5 mph - N/A   Clear